Dewpoint
52 53 53 53 53 52 53 53 54 54 54 55 55 55 54 54 53 53 53 53 53 54 54 55 57 58 60 61 61 61 61 61 61 61 61 62 62 62 62 62 61 61 61 61 62 62 62 62 62 62 62 62 62 62 62 62 62 61 60 60 60 60 59 58 56 55 57 58 59 60 60 60 59 60 60 60 59 60 59 60 60 59 59 58 56
53 53 52 52 52 52 52 53 53 53 54 53 52 52 52 52 52 52 51 52 52 52 53 55 56 57 59 61 61 61 61 61 61 60 60 61 61 61 62 62 62 62 62 62 62 62 62 61 61 62 62 62 62 62 62 61 61 61 60 60 60 60 60 58 57 56 56 56 58 60 59 59 59 60 59 59 59 60 60 60 59 59 59 58 57
52 52 52 51 51 52 52 52 52 53 52 51 51 51 51 51 52 51 51 51 51 52 53 54 54 56 58 60 61 61 61 61 61 61 61 61 61 61 61 62 62 61 61 62 62 62 62 61 61 61 62 62 62 62 62 61 61 61 61 60 59 59 60 60 58 56 56 57 58 58 58 58 58 59 59 60 60 60 59 59 59 59 59 58 57
51 51 51 51 51 50 51 51 52 51 50 50 50 50 50 50 50 50 50 50 50 51 52 51 52 52 54 56 58 60 60 60 60 60 60 61 61 61 61 61 62 62 61 61 61 62 62 61 61 61 61 61 62 62 62 62 61 60 60 60 60 59 59 59 59 58 57 57 58 58 57 57 55 59 59 60 60 59 59 59 59 59 59 58 58
50 50 50 49 49 49 50 51 50 50 49 49 49 50 49 49 49 49 49 49 49 49 50 49 50 50 52 53 55 57 58 60 61 61 61 61 61 61 62 62 62 62 62 61 61 61 61 61 61 61 61 61 61 62 62 61 61 61 60 60 60 59 59 59 59 58 58 57 57 59 58 56 55 58 59 58 59 59 59 59 59 59 58 58 58
50 49 49 49 49 49 49 50 50 49 49 49 49 49 49 48 48 48 48 48 48 48 48 48 48 49 49 50 52 54 56 58 55 54 54 56 60 61 62 62 62 62 62 62 61 61 61 61 61 61 61 60 61 61 61 60 60 60 59 59 59 59 59 59 59 58 58 58 57 57 58 57 57 57 58 58 58 58 58 58 59 58 58 57 58
49 49 49 49 49 49 49 49 50 49 49 49 49 49 48 48 48 48 47 47 47 47 47 47 47 47 47 48 49 51 54 54 51 49 49 50 54 58 61 61 61 62 62 62 62 61 61 61 61 61 60 60 60 60 59 60 60 59 59 59 59 59 59 58 58 58 58 58 57 58 58 58 55 54 55 59 58 58 57 57 56 57 58 57 57
48 49 49 48 48 49 49 49 49 49 49 49 48 48 48 47 47 47 47 46 47 46 46 46 46 46 46 47 47 48 51 52 50 48 47 46 48 53 58 61 61 61 61 61 61 61 61 61 61 61 61 61 60 59 60 59 60 60 59 59 59 59 58 58 58 58 58 57 57 57 58 57 55 57 58 58 57 56 57 56 55 55 56 57 56
48 48 48 48 49 49 49 49 49 48 48 48 48 48 47 47 47 47 46 46 46 46 46 45 45 45 45 45 45 47 49 50 50 48 45 44 45 47 53 59 61 61 61 61 61 60 61 61 61 61 62 62 58 58 58 58 60 60 59 59 59 58 58 58 58 58 57 57 57 57 57 57 55 54 55 56 55 54 55 55 54 55 56 55 55
47 47 47 48 49 49 48 48 48 48 47 47 47 47 47 47 47 46 46 46 46 45 45 45 45 45 44 44 44 45 47 48 49 46 44 43 43 45 49 56 60 61 60 60 60 60 60 60 61 61 59 58 57 53 51 52 55 60 60 59 59 58 58 57 57 58 57 56 56 56 56 56 54 53 54 54 55 54 51 51 52 53 53 51 51
47 47 47 48 48 47 47 47 47 47 47 46 46 47 47 47 46 46 46 46 45 45 45 44 44 44 44 44 44 45 45 47 44 41 40 41 42 44 47 52 58 60 60 60 59 59 60 60 60 60 59 58 56 51 49 49 49 51 52 55 57 58 57 57 57 58 57 56 56 56 56 55 55 52 53 54 53 50 49 49 51 51 50 49 48
46 47 47 48 48 47 46 46 46 46 46 45 45 46 46 46 46 45 45 45 45 45 44 44 44 44 44 44 44 44 44 45 41 40 40 39 41 43 45 50 58 60 59 59 59 59 59 59 59 59 60 60 59 58 53 48 47 49 49 50 51 51 53 57 57 57 57 56 56 56 56 55 55 51 52 52 51 49 49 47 50 50 49 48 47
45 46 46 47 47 47 47 45 44 45 45 45 44 44 45 45 45 45 44 45 45 44 44 43 43 44 44 43 43 43 43 43 40 40 40 39 39 41 45 52 58 59 59 59 59 58 58 59 59 59 60 59 60 59 57 53 48 49 49 49 49 48 49 50 51 58 58 57 56 56 56 56 55 51 50 51 51 47 49 47 49 50 49 48 48
44 45 45 45 46 46 46 46 44 42 43 43 43 42 43 43 44 44 44 44 44 43 43 43 43 43 43 43 43 43 43 42 39 40 42 40 39 40 46 55 57 56 55 55 57 58 59 58 58 58 58 58 58 57 55 54 55 56 55 55 56 52 48 48 48 50 54 58 57 56 56 56 55 52 50 52 51 48 46 45 48 50 49 49 49
43 44 44 44 44 44 44 44 45 43 41 41 41 41 41 42 43 44 43 43 43 43 43 42 43 43 43 43 42 42 43 39 39 40 43 45 45 46 54 52 52 51 51 51 50 51 54 57 57 56 56 56 55 55 55 55 55 56 56 56 55 55 55 55 56 57 57 58 57 57 56 56 56 55 52 50 50 51 48 48 48 50 50 50 50
43 43 43 43 43 43 43 42 43 43 42 40 40 40 40 40 41 42 43 43 43 43 43 43 42 43 43 43 42 42 42 39 38 40 41 43 46 51 51 50 49 48 48 48 48 48 49 50 54 57 56 56 53 48 52 56 56 54 52 51 50 50 47 44 41 49 55 55 53 52 51 50 50 56 54 52 52 50 49 51 51 51 51 50 49
42 43 43 43 43 42 41 41 41 41 42 40 39 39 39 40 40 42 42 42 42 43 42 42 42 43 43 43 42 42 41 40 38 39 40 42 46 50 49 48 48 47 47 47 47 46 47 48 50 52 56 55 47 45 47 50 53 52 50 49 49 48 46 45 41 40 40 40 40 41 42 42 46 50 47 47 50 51 51 50 50 51 50 49 48
41 41 40 41 42 42 40 40 39 40 40 40 39 38 38 39 39 40 40 41 42 42 42 42 42 42 43 43 42 42 41 40 38 38 39 40 45 48 47 46 45 46 46 46 46 45 46 45 48 47 50 48 41 43 45 50 52 51 50 49 48 47 47 47 47 45 41 41 41 41 41 42 42 45 45 46 46 48 50 50 50 51 49 48 48
39 39 39 39 39 40 39 39 38 39 39 39 40 39 38 38 39 39 40 41 42 42 42 41 41 42 42 43 43 41 41 41 38 38 38 39 44 47 46 45 44 44 44 45 45 44 44 44 43 42 44 43 40 41 43 49 52 51 50 49 48 47 48 49 49 49 49 49 48 48 47 47 49 50 48 45 46 49 49 50 50 49 49 48 45
38 38 38 38 38 39 38 38 38 38 38 38 39 39 39 37 37 38 38 40 41 41 42 41 41 41 42 42 42 41 41 41 39 38 38 38 40 45 45 45 44 44 44 43 43 43 44 43 43 38 38 39 39 40 42 44 51 51 51 50 49 48 49 48 48 48 47 47 46 46 47 47 48 49 49 49 49 50 50 50 50 49 47 46 47
37 38 38 38 38 38 38 37 37 37 37 38 38 38 38 37 37 37 38 39 40 41 41 41 40 40 40 41 42 42 41 41 40 37 38 38 38 40 42 42 43 43 43 42 42 42 42 42 42 39 38 39 39 39 40 42 44 48 47 47 47 46 45 46 46 45 46 46 46 45 45 46 46 46 46 46 47 47 47 46 47 48 47 47 48
36 37 37 37 37 37 37 37 37 37 37 37 36 36 37 37 37 37 37 38 39 39 40 40 40 40 40 40 41 41 42 41 41 39 37 38 37 38 40 41 41 42 41 41 41 42 42 42 42 40 38 38 39 39 40 40 41 45 43 39 40 41 47 47 47 46 46 46 45 45 45 44 44 44 44 45 45 46 46 46 46 46 46 47 47
36 36 37 37 38 37 37 36 36 37 36 36 35 35 36 36 37 37 37 37 38 38 39 40 39 39 39 39 40 40 41 41 39 40 38 37 37 37 37 39 38 42 40 40 40 40 41 42 42 40 38 38 38 38 39 40 42 41 39 40 40 40 43 45 45 45 45 44 44 43 43 43 43 43 43 43 44 45 45 45 45 45 45 45 45
36 36 37 36 37 37 37 37 36 36 36 35 35 34 35 35 36 36 37 37 37 37 38 39 39 39 39 39 39 39 40 41 40 39 39 37 37 37 37 37 38 40 40 40 40 40 40 40 40 38 38 38 38 38 38 39 41 39 39 40 40 41 45 44 44 43 42 42 42 42 42 42 42 42 42 43 43 44 44 44 44 44 45 44 44
36 36 35 36 36 36 36 36 36 36 36 35 34 34 34 34 34 35 36 37 37 37 37 38 38 39 39 39 39 39 40 40 40 40 38 38 37 37 37 37 37 38 40 40 39 39 37 37 37 37 38 38 38 39 40 39 38 39 40 41 44 45 44 43 43 43 42 41 41 42 42 42 42 43 43 43 43 43 43 43 43 44 44 44 43
36 35 35 35 35 34 34 34 34 34 34 35 35 35 33 34 34 34 35 36 36 36 36 37 37 38 38 39 39 39 39 39 39 40 40 40 39 38 37 37 38 38 39 39 37 37 37 37 37 38 38 39 41 41 41 41 39 39 40 42 44 44 44 44 43 42 42 42 41 42 42 43 43 43 43 43 43 42 42 42 42 42 43 43 42
36 35 34 34 34 34 33 33 33 33 33 32 33 34 34 33 33 34 34 34 35 36 35 35 36 36 37 38 38 39 39 38 38 39 40 40 40 39 39 39 39 39 40 40 40 40 39 39 38 37 38 37 38 38 39 40 41 42 43 42 42 43 43 43 43 43 42 42 42 42 43 43 44 43 42 42 41 42 42 41 41 41 42 42 40
34 34 34 34 34 33 33 32 33 32 32 32 31 31 31 32 32 32 32 32 33 34 34 35 35 34 35 35 37 37 37 38 37 37 38 39 40 39 39 39 39 39 39 39 39 40 39 38 38 39 39 39 40 40 41 41 40 40 41 42 42 41 41 41 41 42 42 43 42 42 42 42 42 42 42 42 42 41 42 41 41 40 41 41 38
35 34 34 34 34 33 34 32 32 31 30 31 30 30 30 31 31 30 31 31 32 32 34 33 33 32 32 34 35 35 36 36 36 36 36 36 36 39 39 38 38 38 37 36 38 38 38 38 37 38 38 36 36 38 39 39 39 40 39 40 41 41 40 40 40 40 40 40 40 40 40 41 41 41 41 41 41 42 42 42 41 42 39 38 37
35 35 34 34 33 33 33 33 33 33 31 30 31 30 32 34 32 31 31 34 34 35 34 32 33 33 33 32 32 34 34 34 35 36 36 36 36 36 36 36 35 36 36 35 36 35 36 35 36 36 36 36 36 35 36 37 37 37 38 36 38 39 39 39 38 38 37 38 38 37 37 37 38 40 40 39 40 40 40 39 40 40 39 38 36
35 35 35 34 34 34 33 32 32 32 31 30 31 30 30 31 33 34 34 35 34 34 34 34 34 35 34 33 34 35 35 35 35 36 36 36 36 36 36 35 35 35 35 34 35 34 34 34 34 35 35 36 35 35 35 34 34 34 36 36 37 36 35 37 37 34 34 33 34 34 34 35 34 35 35 34 36 38 38 37 38 36 37 35 34
34 34 35 34 34 34 34 33 33 33 32 32 30 31 30 30 32 33 34 34 34 34 34 34 34 34 34 35 35 34 34 34 35 35 35 34 35 36 37 36 36 35 35 35 34 34 34 34 34 34 35 34 34 34 35 35 35 35 34 33 33 34 35 35 36 37 34 34 32 32 32 33 33 32 32 32 31 32 33 32 32 32 32 32 32
33 34 34 34 34 33 34 33 33 34 34 32 33 31 31 29 30 29 31 33 34 34 34 34 34 34 34 34 34 34 33 34 34 35 35 34 35 36 36 36 37 36 35 34 33 33 34 35 36 36 35 34 34 34 34 35 35 34 34 33 33 33 35 35 33 35 33 33 32 32 32 32 31 31 31 31 31 30 31 30 30 30 30 30 30
33 33 33 33 34 34 33 33 33 32 32 32 32 32 31 31 30 28 28 28 29 31 33 33 34 34 34 34 34 33 33 33 34 34 34 34 35 35 35 34 36 36 36 33 33 32 33 34 33 34 35 34 34 33 33 33 33 32 32 32 32 31 31 31 32 31 31 31 31 31 31 31 31 30 30 30 30 30 30 30 30 30 30 29 29
33 32 31 32 32 32 32 31 31 31 32 32 31 31 31 30 29 29 29 28 28 28 28 30 32 33 33 33 34 33 33 33 33 33 33 34 34 35 35 34 33 34 35 35 34 34 33 33 33 33 31 32 32 32 31 31 31 30 30 30 29 29 29 30 30 30 30 31 31 31 31 31 31 30 29 29 28 28 29 29 29 29 29 29 28
33 32 33 32 32 31 31 31 32 32 32 31 31 30 30 29 29 29 28 29 29 28 28 29 28 32 33 34 34 33 33 33 33 33 32 32 32 33 32 31 33 32 33 33 32 32 32 31 32 31 31 31 30 30 30 30 30 29 29 29 29 29 29 29 30 30 30 30 30 30 30 30 30 30 29 29 29 29 29 29 29 30 30 29 29
33 32 32 31 32 31 31 31 31 30 30 30 30 31 31 30 29 29 29 28 28 28 27 28 29 30 31 32 35 32 32 32 32 32 32 32 32 30 30 30 30 31 31 31 31 30 31 31 30 31 30 30 29 29 29 29 29 29 30 28 28 29 29 28 29 29 29 29 29 30 29 29 29 29 28 28 29 29 29 29 29 30 30 29 29
32 32 31 32 33 33 31 31 30 29 29 30 30 30 30 29 29 28 28 27 27 27 27 27 30 27 28 28 38 31 29 31 31 31 31 31 30 29 29 29 29 29 28 29 29 29 29 29 31 31 31 30 29 29 29 29 29 29 29 29 29 28 31 29 29 29 28 29 29 29 29 29 29 28 28 28 28 28 29 29 28 28 29 29 29
30 29 30 31 31 32 31 30 30 29 29 29 29 29 28 28 28 28 27 27 26 27 26 27 27 27 27 28 29 32 29 27 28 27 28 29 29 29 29 29 29 29 29 29 29 29 29 28 28 28 29 28 28 28 28 27 28 29 28 29 29 28 28 28 28 27 27 26 26 26 27 28 28 29 28 28 27 28 28 28 28 28 27 28 27
26 27 27 28 28 30 30 28 29 29 28 29 28 28 28 28 28 28 27 27 25 26 26 26 27 26 27 27 28 28 27 27 24 25 26 27 28 28 28 28 28 28 28 28 29 28 29 28 28 28 27 27 27 27 27 27 25 25 26 26 26 26 27 27 27 27 26 25 26 26 27 27 27 28 28 27 25 26 27 27 27 27 27 27 27
27 28 28 28 27 28 28 28 28 28 28 28 28 28 28 28 28 27 27 27 27 27 27 27 27 27 28 29 32 30 28 27 26 26 25 26 26 27 28 27 28 28 28 28 28 28 28 28 27 27 27 27 27 28 27 26 27 25 26 25 24 25 25 26 26 26 27 26 26 26 25 26 26 26 24 25 30 28 28 28 28 27 27 27 27
29 28 28 27 28 28 27 26 27 28 27 28 29 28 28 27 27 28 28 27 27 27 27 27 27 27 29 32 32 31 29 27 27 26 26 26 26 26 27 27 27 27 27 27 27 28 28 28 27 26 27 27 28 28 28 28 27 26 24 24 25 25 26 25 24 23 24 24 23 24 24 25 25 26 27 31 27 27 28 27 26 26 26 26 26
29 28 28 29 29 28 26 25 26 27 27 27 27 28 28 28 28 28 27 27 27 27 27 27 28 27 28 30 30 30 28 27 28 26 26 26 26 26 26 26 27 27 27 27 26 27 26 27 25 25 25 25 25 25 25 23 24 24 23 25 25 25 24 24 25 25 23 24 24 24 23 23 24 23 24 25 25 25 25 25 26 26 25 25 26
30 28 28 28 28 28 28 26 25 25 26 27 28 28 28 29 28 28 28 27 27 27 27 27 27 27 27 29 28 28 27 27 27 26 27 26 26 26 25 26 26 27 27 26 27 26 26 25 23 23 23 24 25 26 24 24 25 25 24 24 24 24 23 23 24 22 22 23 24 23 23 22 23 21 24 24 22 22 21 21 23 24 24 24 24
30 28 28 28 29 27 27 27 27 27 27 27 26 27 27 27 27 27 26 26 27 26 27 27 27 27 27 27 27 27 27 27 27 27 26 26 26 26 25 25 26 26 25 26 25 26 24 22 21 21 20 21 23 24 23 23 24 24 24 25 24 23 22 22 22 23 23 24 23 24 23 22 20 20 21 20 20 20 19 19 21 24 21 21 21
30 28 27 27 27 27 26 26 27 27 27 25 24 25 26 25 26 26 26 26 26 26 27 27 26 27 27 27 27 28 27 27 27 27 27 27 27 26 26 25 26 26 25 24 24 25 22 23 22 20 20 21 22 23 24 25 25 25 25 25 25 23 23 22 23 23 23 22 23 22 22 21 20 23 24 20 20 18 18 19 19 19 18 18 20
31 27 27 27 26 27 26 25 27 28 27 26 26 26 24 25 26 27 27 26 27 27 27 27 27 27 27 27 27 26 26 27 27 26 27 27 27 27 26 26 26 25 26 25 24 23 24 23 22 21 21 20 22 24 24 24 24 24 24 23 24 24 22 21 21 21 22 22 22 23 21 21 20 20 22 21 21 19 20 19 17 13 14 19 18
29 28 28 28 27 27 27 26 26 27 26 26 26 25 25 25 25 26 25 25 25 25 25 25 25 25 26 25 25 25 26 26 27 28 27 27 28 27 26 26 25 25 25 25 25 24 23 22 22 21 21 21 22 22 23 24 23 23 22 20 21 21 21 20 20 21 21 20 20 21 20 21 20 20 20 18 17 19 16 13 17 19 18 18 19
28 27 26 27 27 27 27 26 28 26 23 24 26 25 25 25 26 25 25 25 24 25 24 24 24 25 25 25 25 25 26 27 26 26 27 26 27 28 27 27 26 26 25 25 24 25 24 24 24 22 22 22 22 23 22 23 23 22 20 18 18 18 18 18 18 19 21 18 19 19 19 20 20 21 20 18 19 18 16 14 13 15 19 21 20
27 28 28 27 28 27 27 27 26 25 25 25 25 25 25 25 24 24 25 25 24 25 24 25 25 25 25 25 26 25 26 26 26 26 27 28 28 27 28 27 26 25 26 25 25 27 25 24 24 23 23 22 22 23 23 24 23 22 20 17 17 17 16 16 16 16 16 15 16 16 18 18 18 19 19 18 17 16 15 16 19 20 17 14 16
26 27 28 28 27 27 25 23 23 24 24 25 24 24 25 24 24 24 25 23 23 24 25 24 24 25 25 25 26 26 25 25 25 26 27 27 27 28 27 27 27 27 26 25 27 27 26 25 24 24 24 24 23 22 23 23 22 21 20 18 17 17 16 15 12 12 15 16 15 17 17 16 16 16 18 19 17 15 17 18 17 15 16 15 18